Weather History for Whitefield, NH

Change the Weather History Date:

Saturday, February 23, 2013

  Actual Average Record
Temperature  
Mean Temperature 30 °F -  
Max Temperature 35 °F 30 °F 45 °F (2014)
Min Temperature 24 °F 3 °F -18 °F (2011)
Degree Days  
Heating Degree Days 36    
Moisture  
Dew Point 24 °F    
Average Humidity 71    
Maximum Humidity 88    
Minimum Humidity 59    
Precipitation  
Precipitation 0.03 in - - ()
Sea Level Pressure  
Sea Level Pressure 30.05 in    
Wind  
Wind Speed 7 mph (South)    
Max Wind Speed 15 mph    
Max Gust Speed 24 mph    
Visibility 8 miles    
Events Rain , Snow    
Averages and records for this station are not official NWS values.
T = Trace of Precipitation, MM = Missing Value Source: NWS Daily Summary

Daily Weather History Graph

Daily Weather History Graph

Search for Another Location

Airport:

Trip Planner

Search our weather history database for the weather conditions in past years. The results will help you decide how hot, cold, wet, or windy it might be!

Date:

Astronomy

Feb. 23, 2013 Rise Set
Actual Time 6:33 AM EST 5:26 PM EST
Civil Twilight 6:03 AM EST 5:55 PM EST
Nautical Twilight 5:30 AM EST 6:29 PM EST
Astronomical Twilight 4:56 AM EST 7:03 PM EST
Moon 3:31 PM EST (2/23) 4:56 AM EST (2/23)
Length of Visible Light 11h 52m
Length of Day
10h 53m
Waxing Gibbous, 95% of the Moon is Illuminated
Feb 23
Waxing Gibbous
Feb 25
Full
Mar 4
Last Quarter
Mar 11
New
Mar 19
First Quarter

Hourly Weather History & Observations

Time (EST) Temp. Windchill Dew Point Humidity Pressure Visibility Wind Dir Wind Speed Gust Speed Precip Events Conditions
12:52 AM 24.1 °F - 21.0 °F 88% 30.28 in 10.0 mi Calm Calm - N/A   Overcast
1:52 AM 24.1 °F - 19.0 °F 81% 30.25 in 10.0 mi Calm Calm - N/A   Overcast
2:52 AM 26.1 °F - 19.9 °F 78% 30.23 in 10.0 mi Calm Calm - N/A   Overcast
3:52 AM 30.9 °F 24.3 °F 18.0 °F 59% 30.22 in 10.0 mi South 6.9 mph - N/A   Overcast
4:52 AM 30.9 °F 23.5 °F 18.0 °F 59% 30.21 in 10.0 mi South 8.1 mph - N/A   Overcast
5:52 AM 30.0 °F 21.7 °F 19.0 °F 64% 30.22 in 10.0 mi South 9.2 mph - N/A   Overcast
6:52 AM 30.0 °F 23.2 °F 19.9 °F 66% 30.19 in 10.0 mi SSE 6.9 mph - N/A   Overcast
7:52 AM 32.0 °F 24.2 °F 21.0 °F 64% 30.17 in 10.0 mi SSE 9.2 mph 18.4 mph N/A   Overcast
8:52 AM 32.0 °F 24.2 °F 21.9 °F 66% 30.18 in 10.0 mi South 9.2 mph 17.3 mph 0.01 in   Overcast
9:52 AM 33.1 °F 23.4 °F 23.0 °F 66% 30.17 in 10.0 mi South 13.8 mph 19.6 mph N/A   Overcast
10:52 AM 33.1 °F 24.4 °F 23.0 °F 66% 30.14 in 10.0 mi SSE 11.5 mph 21.9 mph N/A   Overcast
11:43 AM 33.8 °F 27.0 °F 23.0 °F 65% 30.09 in 10.0 mi South 8.1 mph 19.6 mph N/A   Overcast
11:52 AM 33.1 °F 26.1 °F 24.1 °F 70% 30.13 in 10.0 mi SSE 8.1 mph - N/A   Overcast
12:36 PM 33.8 °F 25.8 °F 24.8 °F 70% 30.06 in 10.0 mi SSE 10.4 mph - N/A   Overcast
12:52 PM 34.0 °F 28.0 °F 24.1 °F 67% 30.09 in 10.0 mi Variable 6.9 mph - N/A   Overcast
1:30 PM 35.6 °F 28.0 °F 24.8 °F 65% 30.03 in 10.0 mi SSE 10.4 mph - N/A   Overcast
1:39 PM 35.6 °F 28.6 °F 24.8 °F 65% 30.03 in 10.0 mi South 9.2 mph - N/A   Overcast
1:52 PM 35.1 °F 27.4 °F 24.1 °F 64% 30.07 in 10.0 mi South 10.4 mph 18.4 mph N/A   Overcast
2:52 PM 35.1 °F 25.5 °F 23.0 °F 61% 30.06 in 10.0 mi South 15.0 mph 24.2 mph N/A   Overcast
3:52 PM 34.0 °F 28.8 °F 23.0 °F 64% 30.04 in 9.0 mi Variable 5.8 mph - 0.00 in Snow Light Snow
4:40 PM 33.8 °F 25.3 °F 24.8 °F 70% 30.00 in 2.5 mi South 11.5 mph 24.2 mph 0.00 in Snow Light Snow
4:52 PM 33.1 °F 27.7 °F 26.1 °F 75% 30.04 in 2.0 mi SSE 5.8 mph 17.3 mph 0.00 in Snow Light Snow
5:03 PM 33.8 °F 26.4 °F 24.8 °F 70% 29.99 in 5.0 mi South 9.2 mph 17.3 mph 0.00 in Snow Light Snow
5:52 PM 33.1 °F 26.9 °F 25.0 °F 72% 30.01 in 7.0 mi South 6.9 mph - 0.00 in Snow Light Snow
6:02 PM 33.8 °F 26.4 °F 24.8 °F 70% 29.97 in 9.0 mi South 9.2 mph - 0.00 in   Overcast
6:52 PM 34.0 °F 25.5 °F 25.0 °F 70% 30.01 in 8.0 mi South 11.5 mph 20.7 mph 0.00 in Snow Light Snow
7:20 PM 33.8 °F 24.8 °F 26.6 °F 75% 29.96 in 4.0 mi South 12.7 mph 20.7 mph 0.00 in Snow Light Snow
7:35 PM 33.8 °F 25.8 °F 24.8 °F 70% 29.96 in 8.0 mi South 10.4 mph 19.6 mph 0.00 in Snow Light Snow
7:52 PM 35.1 °F 27.4 °F 24.1 °F 64% 29.99 in 10.0 mi South 10.4 mph 19.6 mph 0.00 in   Overcast
8:45 PM 33.8 °F 26.4 °F 26.6 °F 75% 29.95 in 3.0 mi South 9.2 mph 17.3 mph 0.00 in Snow Light Snow
8:52 PM 34.0 °F 27.2 °F 26.1 °F 73% 29.99 in 3.0 mi South 8.1 mph 17.3 mph 0.00 in Snow Light Snow
9:14 PM 33.8 °F 27.0 °F 26.6 °F 75% 29.95 in 2.0 mi South 8.1 mph 18.4 mph 0.01 in Snow Light Snow
9:23 PM 32.0 °F 23.0 °F 28.4 °F 87% 29.95 in 1.5 mi South 11.5 mph - 0.01 in Snow Light Snow
9:46 PM 32.0 °F 25.6 °F 28.4 °F 87% 29.93 in 2.5 mi SSW 6.9 mph - 0.02 in Snow Light Snow
9:47 PM 32.0 °F 25.6 °F 28.0 °F 85% 29.97 in 2.5 mi SSW 6.9 mph - 0.02 in Snow Light Snow
9:56 PM 33.8 °F 27.0 °F 26.6 °F 75% 29.93 in 6.0 mi South 8.1 mph - 0.00 in Snow Light Snow
10:17 PM 33.8 °F 26.4 °F 26.6 °F 75% 29.92 in 9.0 mi South 9.2 mph 18.4 mph 0.00 in Snow Light Snow
10:25 PM 33.8 °F 28.6 °F 26.6 °F 75% 29.91 in 5.0 mi Variable 5.8 mph - 0.00 in Snow Light Snow
10:38 PM 32.0 °F 28.7 °F 28.4 °F 87% 29.90 in 5.0 mi Variable 3.5 mph - 0.00 in Snow Light Snow
10:52 PM 33.1 °F 27.7 °F 27.0 °F 78% 29.94 in 10.0 mi Variable 5.8 mph - 0.00 in Rain Light Rain
11:52 PM 34.0 °F 31.0 °F 26.1 °F 73% 29.92 in 10.0 mi NNE 3.5 mph - 0.00 in   Overcast